Location: Haliburton Scout Reserve
(45.0900°N, 78.3200°W)
Time: 18:04:16
(UTC-04:00)

Courier 1B Rocket - Pass Details

Date: 06 February 2023
Orbit: 920 x 1202 km, 28.2° (Epoch: 22 March)

Event Time Altitude Azimuth Distance (km) Brightness Sun altitude
Rises 14:46:18 0° 209° (SSW) 3,682 9.5 21.7°
Reaches altitude 10° 14:52:32 10° 165° (SSE) 2,660 7.9 21.0°
Maximum altitude 14:52:52 10° 162° (SSE) 2,654 7.9 21.0°
Drops below altitude 10° 14:53:13 10° 159° (SSE) 2,654 7.8 21.0°
Sets 14:59:15 0° 115° (ESE) 3,556 7.8 20.3°
